Voltar ao catálogo

COSMOS 1698

AtivoNavegaçãoHEO
NORAD 16183·PAYLOAD·🇷🇺 Russia

Lançado Oct 22, 1985 de Plesetsk Cosmodrome

Loading…

Próximas Passagens (próximas 24 horas)

TLE

AtualizadoSource: Space-Track

Época: Sep 12, 2026, 09:19 UTC

1 16183U 85098A   26255.38836056 -.00000159  00000-0  00000-0 0  9994
2 16183  71.4628 101.0864 5091213 346.3149 221.2235  2.00830956299493

Acompanhe COSMOS 1698 em tempo real com AllMySat

Download on the App Store